This is the latest recevied weather packets stored in our database for station/object W7MB. If no packets are shown the sender has not sent any weather packets the latest 1 day(s).
| Time | Temp. | Humidity | Pressure | Rain* | Wind** | Luminosity | Snow |
|---|---|---|---|---|---|---|---|
| 1778019483 | 26.67° C | 38% | 1010.6 hPa | 0 mm | 0.45 m/s, 174° | - | - |
| 1778019123 | 26.67° C | 36% | 1010.7 hPa | 0 mm | 0.89 m/s, 197° | - | - |
| 1778018763 | 26.67° C | 38% | 1010.7 hPa | 0 mm | 0.45 m/s, 239° | - | - |
| 1778018403 | 26.67° C | 38% | 1010.6 hPa | 0 mm | 0.45 m/s, 180° | - | - |
| 1778018043 | 26.67° C | 34% | 1010.7 hPa | 0 mm | 0.89 m/s, 177° | - | - |
| 1778017683 | 27.22° C | 35% | 1010.8 hPa | 0 mm | 0.89 m/s, 171° | - | - |
| 1778017323 | 27.78° C | 32% | 1010.8 hPa | 0 mm | 0.89 m/s, 176° | - | - |
| 1778016963 | 28.33° C | 34% | 1010.9 hPa | 0 mm | 0.89 m/s, 178° | - | - |
| 1778016603 | 28.89° C | 33% | 1010.9 hPa | 0 mm | 0.89 m/s, 179° | - | - |
| 1778016243 | 29.44° C | 32% | 1011 hPa | 0 mm | 1.34 m/s, 206° | - | - |
| 1778015883 | 30° C | 30% | 1010.8 hPa | 0 mm | 1.34 m/s, 229° | - | - |
| 1778015523 | 30° C | 34% | 1011 hPa | 0 mm | 0.89 m/s, 218° | - | - |
| 1778015163 | 30° C | 33% | 1010.9 hPa | 0 mm | 0.89 m/s, 226° | - | - |
| 1778014803 | 30° C | 33% | 1011 hPa | 0 mm | 1.34 m/s, 215° | - | - |
| 1778014443 | 30° C | 35% | 1010.8 hPa | 0 mm | 0.89 m/s, 170° | - | - |
| 1778014083 | 30° C | 29% | 1011 hPa | 0 mm | 0.45 m/s, 187° | - | - |
| 1778013723 | 30° C | 34% | 1011 hPa | 0 mm | 0.45 m/s, 192° | - | - |
| 1778013363 | 30° C | 30% | 1011.1 hPa | 0 mm | 1.34 m/s, 187° | - | - |
| 1778013003 | 30° C | 34% | 1011.2 hPa | 0 mm | 0.89 m/s, 187° | - | - |
| 1778012643 | 29.44° C | 32% | 1011.2 hPa | 0 mm | 0.45 m/s, 215° | - | - |
| 1778012283 | 28.89° C | 38% | 1011.2 hPa | 0 mm | 0.45 m/s, 225° | - | - |
| 1778011927 | 28.33° C | 41% | 1011.2 hPa | 0 mm | 1.34 m/s, 174° | - | - |
| 1778011563 | 28.33° C | 36% | 1011.3 hPa | 0 mm | 1.79 m/s, 166° | - | - |
| 1778011204 | 29.44° C | 31% | 1011.4 hPa | 0 mm | 1.34 m/s, 178° | - | - |
| 1778010843 | 29.44° C | 37% | 1011.5 hPa | 0 mm | 0.89 m/s, 210° | - | - |
* Rain latest hour (hover to see other rain measurements)
** Current wind speed in m/s (hover to see current wind gust speed)